カタログに戻る

STARLINK-30399

運用中通信VLEO
NORAD 57951·PAYLOAD·🇺🇸 United States

打ち上げ Sep 25, 2023 から Vandenberg Space Force Base

Loading…

次のパス (今後24時間)

TLE

最新Source: CelesTrak SupGP

元期: Sep 14, 2026, 21:08 UTC

1 57951C 23148S   26257.88104167  .00038566  00000+0  11394-2 0  2576
2 57951  53.1585 221.7564 0001445  89.5630 176.9304 15.34373693    13

AllMySatでSTARLINK-30399をリアルタイム追跡

Download on the App Store